Track URSA MAIOR now! 10-day predictions URSA MAIOR is classified as:
1 42776U 17036M 21022.86640902 .00000953 00000-0 43963-4 0 9991 2 42776 97.2710 74.4578 0012575 333.8819 26.1782 15.22519014199065